Temperature
22 22 21 21 23 25 28 30 30 30 29 29 29 28 27 27 26 23 22 22 21 20 20 20 20 19 19 19 19 19 19 19 19 19 19 19 19 19 19 19 19 19 19 19 19 19 19 19 19
22 21 22 23 25 27 29 30 30 30 30 29 28 28 27 26 24 23 22 22 21 21 20 20 20 20 19 19 19 19 19 19 19 19 19 19 19 19 19 19 19 19 19 19 19 19 19 19 19
22 22 24 26 28 28 29 30 30 30 30 29 28 27 26 25 24 23 22 22 21 21 20 21 20 20 20 19 19 19 19 19 19 19 19 19 19 19 19 19 19 19 19 19 19 19 19 19 19
22 24 26 28 29 30 31 31 31 31 30 29 28 27 25 25 24 23 23 23 22 21 20 21 20 20 20 20 19 19 19 19 19 19 19 19 19 19 19 19 19 19 19 19 19 19 19 19 19
24 26 28 29 30 31 32 32 31 31 30 29 28 27 25 24 24 23 23 23 22 21 21 21 20 20 20 20 20 19 19 19 19 19 19 19 19 19 19 19 19 19 19 19 19 19 19 19 19
27 28 29 29 31 32 32 32 31 31 30 29 28 26 25 24 24 23 23 23 22 21 21 21 21 20 20 20 20 20 19 19 19 19 19 19 19 19 19 19 19 19 19 19 19 19 19 19 19
28 29 30 31 31 31 32 31 31 31 30 29 28 27 25 24 24 24 23 23 23 22 21 21 21 20 20 20 20 20 20 19 19 19 19 19 19 19 19 19 19 19 19 19 19 19 19 19 19
30 31 31 31 31 31 32 31 31 30 30 29 28 27 25 24 24 24 23 23 23 22 21 21 20 20 20 20 20 20 20 19 19 19 19 19 19 19 19 19 19 19 19 19 19 19 19 19 19
31 31 31 32 32 32 32 32 31 30 29 29 28 27 25 24 24 24 23 23 23 22 21 21 20 20 20 20 20 20 19 19 19 19 19 19 19 19 19 19 19 19 19 19 19 19 19 19 19
31 30 32 33 33 33 32 32 31 31 30 29 27 26 25 25 24 24 24 23 22 22 22 21 21 21 20 20 20 20 19 19 19 19 19 19 19 19 19 19 19 19 19 19 19 19 19 19 19
32 32 33 34 34 33 33 32 32 31 30 29 28 26 25 25 24 24 24 23 22 22 22 21 21 21 20 20 20 20 19 19 19 19 19 19 19 19 19 19 19 19 19 19 19 19 19 19 19
34 34 34 34 34 33 33 32 32 31 30 29 28 27 26 25 25 24 24 23 22 22 22 21 21 21 21 20 20 20 19 19 19 19 19 19 19 19 19 19 19 19 19 19 19 19 19 19 19
34 34 34 34 34 33 32 32 31 31 30 29 28 27 26 26 25 25 24 23 23 22 22 21 21 21 20 20 20 20 20 20 19 19 19 19 19 19 19 19 19 19 19 19 19 19 19 19 19
34 34 34 34 34 33 33 32 31 30 30 29 28 27 27 26 26 25 24 23 23 22 22 21 21 21 20 20 20 20 20 20 20 19 19 19 19 19 19 19 19 19 19 19 19 19 19 19 19
34 33 34 34 34 34 33 31 31 30 30 29 29 28 27 27 26 25 24 24 23 22 22 21 21 20 20 20 20 20 20 20 20 20 20 19 19 19 19 19 19 19 19 19 19 19 19 19 19
33 32 32 34 35 34 33 30 31 30 30 30 29 28 27 27 26 25 24 24 23 22 22 21 21 21 20 20 20 20 20 20 20 20 20 20 19 19 19 19 19 19 19 19 19 19 19 19 19
32 32 33 34 35 35 33 31 32 31 31 30 29 29 28 27 26 26 25 24 23 22 22 21 21 21 20 20 20 20 20 20 20 20 20 20 20 19 19 19 19 19 19 19 19 19 19 19 19
31 32 33 33 35 34 33 32 33 32 31 31 30 29 28 27 26 26 25 24 23 22 22 22 21 21 20 20 20 20 20 20 20 20 20 20 20 19 19 19 19 19 19 19 19 19 19 19 19
33 33 33 34 35 34 33 32 32 32 32 31 30 29 29 28 27 26 25 24 23 22 22 22 21 21 21 20 20 20 20 20 20 20 20 20 19 19 19 19 19 19 19 19 19 19 19 19 19
34 34 34 34 35 34 33 32 32 32 32 31 31 30 29 28 27 26 25 24 23 23 22 22 21 21 21 21 20 20 20 20 20 20 20 20 20 19 19 19 19 19 19 19 19 19 19 19 19
34 34 34 34 34 34 32 31 31 31 31 31 31 30 29 28 27 26 25 24 24 23 22 22 21 21 21 21 20 20 20 20 20 20 20 19 19 20 19 19 19 19 19 19 19 19 19 19 19
33 35 34 34 33 31 32 29 30 30 31 30 30 30 29 28 27 26 25 25 24 23 22 22 22 21 21 21 20 20 20 20 20 20 20 19 19 19 19 19 19 19 19 19 19 19 19 19 19
34 35 34 34 32 31 31 30 29 30 29 30 30 30 30 29 28 27 26 25 24 23 23 22 22 21 21 21 20 20 20 20 20 20 20 19 19 19 19 19 19 19 19 19 19 19 19 18 18
35 35 34 33 32 30 31 31 29 30 30 30 31 30 30 29 28 27 26 25 24 24 23 22 22 21 21 21 20 20 20 20 20 20 20 20 19 19 19 19 19 19 19 19 19 19 18 18 18
35 33 31 31 30 29 31 31 30 31 31 31 31 30 30 29 28 27 26 25 24 24 23 22 22 21 21 21 20 20 20 20 20 20 19 19 19 19 19 19 19 19 19 19 18 18 18 18 18
34 34 31 30 29 29 30 30 31 32 31 31 31 30 30 29 28 27 26 25 24 24 23 22 22 21 21 21 20 20 20 20 19 19 19 19 19 19 19 19 19 19 19 18 18 18 18 18 18
34 34 34 33 32 31 30 30 31 31 31 31 31 30 29 28 27 27 26 25 24 24 23 22 22 21 21 20 20 20 20 19 19 19 19 19 19 19 19 19 19 19 18 18 18 18 18 18 18
35 34 33 32 30 30 31 30 29 29 30 31 30 29 29 28 27 26 26 25 24 24 23 22 22 21 21 20 20 20 20 19 19 19 19 19 19 19 19 19 18 18 18 18 18 18 17 18 17
34 34 33 33 32 30 30 30 31 30 31 31 31 29 28 28 27 26 25 25 24 23 23 22 21 21 21 20 20 20 19 19 19 19 19 18 18 18 18 18 18 18 18 18 18 18 17 17 17
34 34 33 32 30 30 30 30 32 31 31 30 30 29 28 27 27 26 25 24 23 23 22 22 21 21 21 20 20 19 19 19 19 19 19 19 18 18 18 18 18 18 18 18 17 17 17 17 17
Wind_Speed
10 12 10 5 4 2 6 11 12 12 11 11 11 11 14 13 10 9 7 10 13 14 14 13 12 11 11 11 10 10 10 9 9 9 9 8 8 9 9 9 9 9 8 7 7 7 7 7 6
9 10 7 4 2 3 9 11 13 12 10 10 11 13 14 14 13 10 9 10 13 15 14 13 12 12 11 10 10 9 10 9 9 9 8 8 8 8 8 9 8 8 7 7 7 7 7 6 6
11 12 5 3 3 7 10 11 11 10 10 10 11 13 11 10 11 9 9 10 13 14 15 14 13 12 11 10 9 9 9 9 8 8 7 7 8 8 8 8 8 7 7 6 6 6 6 6 6
7 6 4 1 7 10 11 10 9 10 9 10 10 10 11 11 9 10 10 10 13 15 15 15 13 12 11 10 9 9 8 8 7 7 7 7 8 8 8 7 7 6 6 6 5 6 6 5 6
9 5 3 4 9 10 11 10 9 11 10 12 14 13 13 12 12 12 10 9 12 14 15 15 14 12 11 10 9 8 8 7 7 6 6 6 7 7 7 6 6 5 6 6 5 5 5 5 5
5 4 1 6 10 10 11 10 10 12 11 12 13 14 11 11 10 9 9 9 11 13 14 15 14 13 11 10 9 8 7 7 6 6 5 5 6 7 6 6 6 6 5 5 5 5 5 5 5
6 4 3 7 10 11 11 11 11 10 11 11 10 12 9 9 8 10 9 9 10 11 13 12 12 11 11 10 9 8 8 6 6 5 5 5 6 6 6 7 7 7 7 6 6 6 6 6 6
5 2 4 7 10 10 10 10 10 12 11 9 8 8 9 9 9 9 8 9 8 9 10 10 11 11 10 9 9 9 8 7 5 5 5 5 6 7 7 8 8 8 8 7 7 7 8 8 9
4 2 5 8 9 9 9 10 10 11 11 11 12 13 13 12 10 9 8 8 8 8 7 7 8 9 9 9 10 11 9 7 6 5 5 5 6 7 8 8 9 9 9 9 9 10 11 10 11
2 3 6 8 8 8 9 8 9 9 11 12 13 14 13 11 9 8 8 8 7 6 6 6 6 6 6 6 8 8 7 7 6 4 4 4 4 4 5 7 10 10 10 10 11 12 12 11 9
3 4 5 7 7 8 8 8 9 9 10 11 12 13 11 10 9 7 7 8 7 6 6 6 6 4 4 4 5 4 5 6 6 5 4 2 1 2 4 5 7 9 9 8 8 9 9 8 6
3 3 4 6 6 7 7 9 10 10 10 12 12 13 11 10 9 8 8 8 7 6 6 6 6 5 3 3 2 3 3 3 3 4 3 3 1 0 1 1 2 4 4 4 4 4 5 6 5
2 4 4 5 7 7 9 9 9 10 10 12 12 11 10 9 9 9 8 8 7 6 6 7 6 5 3 3 0 2 3 2 4 4 3 1 1 1 1 0 1 2 3 2 2 1 2 3 3
2 2 2 4 5 6 9 9 8 8 10 10 11 10 9 8 8 8 9 9 8 6 6 7 7 6 4 2 1 0 2 3 3 3 3 2 1 1 1 1 1 1 1 1 1 1 1 1 1
2 2 1 3 5 6 7 7 8 8 8 9 10 10 9 8 8 8 8 7 8 7 6 6 7 7 5 2 2 1 1 3 2 3 3 2 1 1 1 1 1 1 1 1 1 1 1 2 2
5 4 2 3 5 5 5 7 8 9 9 8 9 10 9 8 8 8 9 8 7 7 6 5 5 7 5 3 1 1 1 2 2 2 3 3 2 1 1 1 1 1 1 1 2 1 1 1 2
4 3 2 2 3 3 4 8 10 10 9 9 9 9 9 9 8 8 9 9 8 7 6 5 3 5 4 4 3 2 1 1 1 1 2 2 2 2 1 0 0 2 1 1 1 1 1 2 2
4 4 1 1 2 3 4 8 10 10 10 10 10 9 9 9 9 9 8 9 9 8 7 6 4 4 4 3 2 2 1 1 1 1 1 1 1 1 1 1 1 2 1 1 1 1 2 2 3
8 5 3 1 1 0 3 6 7 6 7 10 10 10 9 9 10 10 9 9 9 8 7 6 5 4 3 2 2 2 2 2 2 2 2 2 1 1 0 2 1 1 1 1 1 1 3 2 1
9 5 4 3 0 2 2 4 7 5 6 7 10 10 10 10 10 9 8 8 9 8 7 6 5 5 4 3 2 2 2 2 2 1 2 2 1 0 1 1 2 1 1 1 1 2 2 2 1
9 7 5 5 4 2 2 2 6 7 5 6 7 9 10 10 10 10 9 8 9 9 8 6 5 5 4 3 2 1 1 0 0 2 1 1 1 1 1 0 1 2 1 1 1 2 2 3 2
8 7 7 7 5 5 5 3 4 7 6 5 5 6 9 10 11 11 10 9 9 9 9 7 6 5 4 3 2 2 2 2 1 1 1 2 2 1 1 0 1 2 2 1 2 1 2 3 3
9 8 9 9 8 7 7 4 4 5 6 7 6 6 7 9 9 11 11 10 9 9 9 8 7 6 4 3 2 2 1 1 1 1 1 2 2 2 1 1 1 1 1 1 2 2 2 2 3
10 10 9 10 8 8 9 6 4 6 8 9 8 8 7 8 8 9 10 10 9 9 8 9 8 6 5 4 3 2 2 1 1 1 1 2 2 2 1 1 1 1 1 2 1 2 2 2 2
11 10 7 7 5 7 7 5 2 3 4 8 10 9 8 8 7 8 9 8 7 8 8 8 8 6 5 5 4 3 2 1 1 1 1 2 1 1 1 1 1 1 2 2 2 2 2 2 2
11 11 9 10 7 6 5 3 1 5 4 6 9 8 8 8 7 7 9 8 7 7 7 8 8 6 5 5 4 3 2 2 2 2 2 1 1 0 1 1 0 1 2 2 2 2 2 2 3
12 11 11 12 11 7 4 4 3 4 3 5 8 8 8 7 8 7 8 7 6 6 7 7 7 6 5 5 4 4 3 2 1 1 1 2 2 1 1 0 1 1 1 1 2 2 2 2 2
12 11 9 8 8 9 5 3 3 4 4 5 6 7 9 8 8 7 6 6 6 5 6 7 7 6 5 4 4 4 4 2 1 1 1 1 1 1 1 1 1 1 1 2 2 3 2 2 2
10 12 10 8 8 10 8 2 4 6 5 6 8 8 8 8 8 8 7 7 6 5 5 5 5 5 5 4 3 2 4 3 3 2 1 1 1 1 1 1 2 2 2 2 2 3 3 3 2
12 12 12 9 7 9 10 3 3 4 4 4 6 7 6 6 8 7 7 6 5 4 4 4 4 4 4 4 4 3 2 3 3 2 2 1 1 1 2 2 2 2 2 2 3 4 4 3 3
Wind_Direction
210 223 225 240 247 248 58 63 61 59 59 54 48 56 59 50 55 86 105 106 106 108 111 109 107 108 106 104 103 104 106 107 108 110 112 113 118 122 125 128 129 130 132 133 139 147 148 150 155
232 231 230 241 270 44 61 64 61 61 70 72 65 63 68 66 75 97 103 107 110 112 113 110 111 111 109 108 107 106 108 110 111 112 111 112 117 121 125 127 127 132 135 138 146 154 156 156 163
245 244 246 240 39 53 63 66 71 73 73 75 74 63 58 72 82 99 113 118 113 111 110 113 116 117 113 110 108 106 109 111 113 114 114 113 118 124 127 130 131 134 138 143 149 153 157 163 176
240 237 242 298 51 57 62 68 76 77 74 70 77 75 72 74 87 104 117 116 113 113 114 119 121 122 119 115 111 109 110 111 113 114 118 121 124 128 132 134 136 141 147 150 153 157 159 170 188
241 257 238 66 68 65 65 63 67 70 71 72 80 85 85 86 94 109 120 114 110 113 116 123 126 126 124 121 118 116 114 113 113 115 118 125 134 139 141 144 145 148 150 153 159 164 170 185 202
259 262 288 72 74 72 69 66 67 73 78 84 90 95 88 95 107 118 117 112 109 113 118 126 131 132 131 130 128 126 124 124 124 121 121 129 141 150 152 158 158 160 165 169 177 183 190 201 212
252 281 38 77 79 70 69 68 67 71 72 75 93 99 103 105 109 110 115 115 109 112 120 129 136 138 140 140 141 139 141 141 139 138 141 143 149 157 165 169 174 179 183 186 193 199 207 213 223
258 307 45 71 77 78 80 75 75 78 77 76 84 98 117 118 118 117 115 109 111 112 118 130 138 144 148 148 155 154 152 153 152 155 165 172 175 172 176 177 184 190 195 199 206 211 217 225 231
289 348 55 75 80 88 90 86 87 90 89 80 78 95 115 124 123 119 113 109 102 102 112 125 133 148 150 146 154 167 163 164 168 177 192 195 195 186 185 181 184 196 202 208 214 219 223 228 235
61 56 58 72 84 92 90 96 106 96 92 93 94 101 117 126 121 118 123 116 110 113 121 113 120 130 139 136 143 161 159 157 175 167 182 196 193 186 178 173 188 200 207 215 221 226 229 230 231
92 72 64 66 82 91 91 86 92 90 93 103 113 120 125 126 125 125 121 115 118 122 113 113 110 108 114 118 137 142 148 154 161 157 180 179 190 180 173 177 187 199 208 218 217 222 229 225 228
95 68 67 74 77 88 88 82 80 79 90 109 118 126 133 140 139 138 127 124 129 128 117 111 110 104 88 90 109 141 146 148 145 151 179 157 156 163 155 193 198 191 199 205 212 215 221 224 224
62 77 66 80 89 97 97 91 93 94 99 112 122 128 137 143 140 135 130 130 131 132 122 112 110 105 98 87 344 117 117 127 132 142 152 174 150 125 126 245 266 240 201 191 220 231 220 223 229
20 55 74 102 118 124 115 112 104 106 115 119 127 133 140 138 139 136 136 139 143 142 133 129 127 118 109 120 128 54 130 131 127 137 137 158 157 127 160 200 257 278 223 196 241 259 223 216 220
313 301 270 152 157 134 121 100 110 124 129 134 138 140 139 137 138 138 138 141 143 141 134 135 139 137 139 151 203 155 166 130 134 140 145 152 160 135 226 208 233 273 248 191 180 256 247 231 227
261 243 210 160 137 138 144 116 133 146 146 143 143 142 141 138 143 142 138 139 138 139 140 152 152 141 146 158 165 100 115 129 142 153 148 154 171 186 234 216 227 266 262 236 203 206 261 264 247
266 252 165 147 124 135 141 130 149 158 154 149 148 147 147 142 146 141 145 144 140 134 131 136 125 133 144 161 168 185 156 143 158 148 143 160 187 197 235 258 331 278 271 277 287 73 260 265 261
297 292 243 183 136 125 127 132 149 157 159 153 149 150 151 149 151 147 147 142 137 135 133 136 136 133 143 158 174 193 183 164 173 162 150 145 198 206 270 257 293 297 308 322 346 312 268 255 260
277 286 319 273 132 182 123 133 135 151 164 153 152 156 156 154 151 149 153 148 143 139 139 143 150 148 152 166 177 180 180 184 189 168 142 142 159 143 209 302 291 275 285 308 318 312 292 277 269
284 300 299 289 95 251 142 128 134 162 175 159 156 160 157 152 146 147 151 151 149 145 148 153 159 161 174 172 181 191 173 185 174 126 125 137 132 294 201 241 283 291 290 309 297 297 295 298 305
290 300 300 303 302 279 227 160 161 168 169 152 158 159 158 158 156 155 159 158 156 151 154 159 156 160 169 163 178 184 151 209 130 128 130 154 155 170 302 130 313 310 283 284 286 298 297 297 300
285 308 316 307 300 272 257 221 190 172 165 162 161 164 161 162 161 162 165 164 162 158 158 150 147 149 150 163 181 169 165 186 199 161 162 160 159 163 222 189 302 305 319 316 293 329 301 289 291
289 301 301 297 290 277 274 251 201 183 180 187 171 165 161 155 159 161 166 160 163 160 156 152 145 146 150 161 171 192 193 208 206 172 169 167 169 184 233 184 232 270 290 302 328 323 306 298 303
272 275 278 273 272 276 270 264 197 186 182 180 167 162 159 146 150 149 146 148 157 151 148 146 144 149 155 167 172 180 207 228 237 206 196 209 187 174 193 192 216 254 280 291 297 295 292 309 320
263 269 277 275 264 268 272 274 156 157 170 159 155 156 148 139 134 134 129 138 146 143 144 140 141 146 156 169 176 176 198 222 240 250 241 247 230 154 188 197 182 256 275 278 288 283 302 306 304
264 269 274 286 279 279 290 283 120 135 146 129 135 142 141 137 133 135 133 135 139 138 135 136 142 150 162 168 172 169 182 222 232 243 271 275 300 358 109 120 204 263 283 299 301 290 291 294 291
260 270 281 285 284 277 243 199 148 121 158 136 128 135 137 138 134 134 133 135 138 140 139 141 142 145 156 166 169 169 183 217 256 266 247 307 339 351 64 181 225 252 274 314 320 312 314 318 303
256 272 280 282 291 286 276 206 191 183 175 134 134 144 134 137 134 135 137 132 133 139 140 144 144 149 155 161 183 184 190 192 211 250 262 256 311 330 351 337 323 318 319 324 305 298 300 297 300
260 264 270 283 290 292 291 284 162 170 166 164 151 143 136 146 146 145 137 129 131 134 137 133 143 152 159 172 186 201 185 189 198 211 249 280 280 296 304 303 305 301 294 287 279 289 297 289 288
263 264 265 269 273 276 282 279 105 138 146 135 124 126 135 151 147 143 137 134 131 131 137 140 150 156 165 170 176 199 188 190 195 206 212 223 231 258 266 260 271 278 283 285 284 286 292 296 295
Height
1489 1489 1491 1494 1492 1489 1483 1473 1469 1471 1473 1475 1475 1476 1480 1484 1489 1501 1502 1501 1502 1502 1502 1502 1503 1504 1504 1505 1506 1507 1508 1509 1510 1511 1512 1514 1515 1517 1518 1520 1521 1523 1525 1526 1527 1528 1530 1531 1532
1489 1491 1494 1493 1490 1492 1484 1472 1473 1474 1475 1477 1478 1480 1483 1489 1493 1498 1501 1503 1503 1503 1503 1504 1504 1505 1506 1507 1508 1509 1509 1510 1512 1513 1514 1514 1516 1517 1519 1521 1522 1524 1525 1527 1528 1529 1530 1531 1532
1489 1492 1493 1486 1484 1485 1482 1473 1473 1474 1476 1478 1480 1484 1488 1493 1497 1499 1502 1504 1504 1505 1505 1505 1506 1507 1508 1508 1509 1510 1511 1512 1513 1514 1515 1516 1517 1518 1520 1521 1523 1525 1526 1527 1528 1529 1531 1531 1533
1490 1491 1489 1483 1483 1475 1473 1472 1472 1474 1477 1479 1481 1487 1493 1497 1499 1501 1503 1505 1506 1506 1506 1507 1508 1508 1509 1510 1511 1511 1512 1513 1514 1515 1516 1517 1518 1519 1521 1522 1524 1525 1526 1528 1529 1530 1531 1532 1533
1491 1489 1485 1483 1478 1473 1471 1473 1474 1476 1479 1481 1485 1491 1497 1500 1501 1503 1505 1506 1507 1507 1508 1509 1509 1510 1510 1511 1512 1513 1514 1514 1515 1516 1517 1518 1519 1520 1521 1523 1524 1525 1527 1528 1529 1530 1531 1532 1533
1489 1484 1485 1486 1479 1473 1473 1475 1475 1478 1481 1484 1487 1493 1500 1503 1503 1505 1506 1508 1509 1509 1509 1510 1511 1511 1512 1513 1513 1514 1515 1516 1517 1518 1518 1519 1520 1521 1522 1523 1524 1526 1527 1528 1529 1530 1531 1532 1533
1486 1482 1480 1479 1479 1478 1475 1477 1478 1480 1482 1486 1489 1494 1501 1504 1505 1506 1507 1509 1510 1510 1510 1511 1512 1513 1513 1514 1515 1515 1516 1517 1518 1519 1520 1520 1521 1522 1523 1524 1525 1526 1527 1528 1529 1530 1531 1532 1533
1481 1478 1478 1477 1479 1480 1477 1478 1480 1483 1486 1489 1490 1495 1501 1505 1506 1507 1508 1510 1511 1512 1512 1513 1513 1514 1514 1515 1516 1517 1517 1518 1519 1520 1521 1521 1522 1523 1524 1525 1525 1526 1527 1528 1529 1530 1530 1531 1532
1478 1480 1481 1478 1478 1478 1477 1479 1482 1485 1487 1490 1493 1496 1501 1504 1506 1508 1509 1511 1512 1513 1514 1514 1515 1515 1516 1517 1517 1517 1518 1519 1520 1521 1522 1522 1523 1524 1525 1525 1526 1526 1527 1528 1528 1529 1530 1531 1531
1477 1482 1477 1471 1472 1474 1477 1478 1481 1484 1487 1492 1496 1500 1503 1505 1507 1508 1509 1511 1513 1514 1515 1515 1516 1517 1518 1518 1518 1518 1519 1520 1521 1522 1522 1523 1524 1524 1525 1526 1526 1527 1527 1527 1528 1528 1529 1529 1530
1476 1477 1471 1470 1472 1474 1477 1478 1481 1483 1487 1492 1497 1501 1504 1505 1507 1508 1510 1511 1513 1514 1516 1516 1517 1517 1518 1519 1520 1520 1521 1521 1522 1522 1523 1524 1524 1525 1525 1525 1526 1526 1527 1527 1527 1528 1528 1527 1528
1474 1472 1471 1471 1473 1475 1477 1479 1482 1485 1489 1493 1497 1500 1503 1505 1507 1508 1510 1512 1514 1515 1516 1517 1517 1518 1519 1520 1521 1521 1522 1522 1522 1523 1523 1524 1524 1525 1525 1526 1526 1527 1527 1527 1527 1527 1527 1527 1528
1472 1472 1472 1472 1474 1475 1478 1481 1484 1487 1491 1494 1497 1500 1503 1505 1507 1509 1510 1512 1514 1515 1516 1517 1517 1518 1519 1520 1521 1522 1522 1523 1523 1523 1524 1524 1525 1525 1525 1526 1526 1526 1527 1527 1527 1527 1526 1526 1527
1474 1473 1473 1473 1474 1475 1477 1481 1485 1488 1491 1494 1497 1500 1502 1505 1507 1508 1510 1512 1513 1515 1516 1517 1518 1518 1519 1520 1521 1522 1523 1523 1523 1524 1524 1525 1525 1525 1525 1526 1526 1526 1526 1526 1526 1526 1526 1526 1525
1475 1474 1473 1471 1471 1473 1476 1483 1485 1488 1491 1493 1497 1500 1502 1504 1506 1508 1510 1512 1513 1515 1516 1517 1518 1518 1519 1520 1521 1522 1523 1523 1524 1524 1524 1524 1525 1525 1525 1525 1526 1526 1526 1526 1526 1525 1525 1525 1525
1475 1478 1482 1471 1468 1471 1477 1491 1485 1487 1490 1492 1495 1498 1501 1503 1506 1508 1510 1511 1513 1514 1516 1517 1518 1518 1519 1520 1521 1522 1523 1524 1524 1524 1524 1524 1524 1525 1525 1525 1525 1525 1526 1526 1525 1524 1524 1524 1524
1481 1485 1481 1473 1465 1467 1473 1484 1482 1484 1487 1490 1493 1496 1499 1502 1505 1507 1509 1511 1513 1514 1515 1516 1518 1518 1519 1520 1521 1522 1522 1523 1524 1524 1524 1524 1524 1524 1524 1525 1525 1525 1525 1525 1525 1524 1523 1523 1523
1489 1484 1479 1475 1465 1467 1472 1477 1477 1480 1483 1487 1491 1495 1498 1501 1504 1506 1508 1511 1512 1513 1515 1516 1517 1518 1519 1519 1520 1521 1522 1523 1524 1524 1524 1524 1524 1524 1524 1524 1524 1524 1524 1524 1524 1523 1523 1523 1522
1475 1476 1477 1471 1463 1467 1472 1475 1477 1479 1481 1484 1488 1493 1496 1499 1502 1505 1508 1510 1512 1513 1514 1515 1516 1517 1518 1519 1520 1521 1522 1522 1523 1523 1523 1524 1524 1524 1523 1523 1523 1523 1523 1523 1523 1523 1522 1522 1522
1472 1475 1475 1468 1462 1467 1473 1476 1476 1479 1480 1482 1486 1490 1493 1497 1501 1504 1507 1509 1511 1512 1513 1514 1515 1516 1517 1518 1519 1520 1521 1522 1523 1523 1523 1523 1523 1523 1523 1522 1523 1523 1522 1522 1522 1522 1521 1521 1521
1473 1473 1473 1473 1466 1467 1475 1485 1480 1479 1479 1482 1485 1487 1491 1495 1498 1502 1505 1507 1509 1511 1512 1513 1514 1515 1517 1518 1519 1520 1521 1522 1522 1522 1522 1522 1522 1522 1522 1522 1522 1522 1521 1521 1521 1520 1520 1520 1520
1478 1466 1468 1470 1477 1483 1478 1499 1487 1480 1481 1482 1484 1487 1488 1492 1496 1499 1503 1505 1508 1509 1511 1512 1513 1514 1515 1517 1518 1519 1520 1520 1521 1521 1521 1522 1522 1522 1521 1521 1521 1521 1521 1520 1520 1519 1519 1519 1519
1471 1465 1467 1469 1476 1483 1480 1491 1491 1480 1484 1481 1481 1484 1487 1490 1493 1497 1500 1503 1506 1508 1510 1511 1512 1513 1514 1516 1517 1518 1519 1520 1520 1521 1521 1521 1521 1521 1520 1520 1519 1519 1519 1519 1518 1518 1518 1517 1517
1463 1466 1468 1470 1478 1498 1486 1488 1495 1480 1480 1478 1479 1482 1485 1488 1492 1495 1499 1502 1505 1507 1509 1510 1511 1512 1513 1515 1516 1517 1518 1519 1519 1520 1520 1520 1520 1519 1519 1519 1518 1518 1517 1517 1517 1516 1516 1516 1515
1464 1475 1492 1497 1501 1501 1478 1484 1485 1472 1470 1472 1475 1480 1484 1488 1491 1494 1497 1501 1504 1506 1508 1509 1510 1511 1512 1513 1515 1515 1516 1517 1518 1518 1518 1518 1519 1518 1517 1517 1516 1516 1516 1515 1515 1515 1514 1514 1514
1465 1470 1492 1506 1509 1498 1484 1490 1479 1469 1470 1472 1475 1479 1483 1487 1491 1494 1497 1500 1502 1505 1507 1508 1509 1510 1511 1512 1513 1514 1515 1516 1516 1517 1517 1517 1517 1517 1516 1516 1515 1514 1514 1513 1513 1513 1512 1512 1512
1467 1467 1463 1476 1482 1492 1488 1481 1474 1468 1470 1472 1475 1479 1483 1487 1491 1494 1497 1499 1502 1504 1505 1507 1508 1509 1510 1511 1512 1512 1513 1514 1515 1515 1515 1515 1516 1516 1515 1514 1514 1513 1512 1511 1511 1511 1510 1510 1509
1457 1460 1467 1479 1497 1502 1490 1487 1486 1477 1473 1472 1476 1479 1482 1487 1491 1495 1497 1499 1501 1503 1504 1506 1507 1508 1509 1510 1511 1512 1512 1512 1513 1513 1514 1513 1513 1513 1513 1512 1512 1511 1510 1510 1509 1509 1509 1508 1507
1462 1464 1466 1471 1477 1494 1500 1491 1467 1471 1470 1472 1474 1478 1482 1486 1490 1493 1496 1498 1500 1502 1503 1505 1506 1507 1507 1508 1509 1510 1511 1511 1511 1511 1511 1511 1511 1511 1511 1510 1510 1509 1509 1508 1507 1507 1506 1505 1504
1457 1460 1464 1480 1484 1483 1488 1487 1462 1466 1468 1471 1475 1478 1482 1486 1489 1492 1495 1497 1499 1501 1502 1503 1505 1506 1507 1507 1508 1509 1509 1509 1509 1509 1509 1509 1509 1509 1509 1508 1507 1507 1506 1506 1505 1504 1504 1503 1502